Location: Corcelles
(46.1547°N, 4.7234°E)
Time: 10:43:37
(UTC+00:00)

Meteor 1-5 Rocket - Pass Details

Date: 14 July 2020
Orbit: 790 x 915 km, 81.2° (Epoch: 05 August)

Event Time Altitude Azimuth Distance (km) Brightness Sun altitude
Exits shadow 01:55:46 25° 201° (SSW) 1,670 5.1 -16.2°
Maximum altitude 01:59:11 74° 282° (WNW) 915 4.3 -15.9°
Drops below altitude 10° 02:05:04 10° 8° (N) 2,577 7.8 -15.4°
Sets 02:07:35 0° 10° (N) 3,535 8.7 -15.1°
